Location: Newark
(43.0658°N, 122.2322°W)
Time: 17:59:10
(UTC+00:00)

STARLINK-1575 - Pass Details

Date: 21 September 2020
Orbit: 378 x 381 km, 53.0° (Epoch: 28 October)

Event Time Altitude Azimuth Distance (km) Brightness Sun altitude
Exits shadow 12:02:25 16° 344° (NNW) 1,165 5.3 -21.0°
Maximum altitude 12:02:42 16° 350° (N) 1,159 5.4 -21.0°
Drops below altitude 10° 12:04:54 10° 32° (NNE) 1,483 6.6 -20.6°
Sets 12:07:34 0° 55° (NE) 2,347 8.3 -20.2°
